FW6744 Weather Reports


time (UTC)temp
C
wind
direction
speed
KPH
gust
KPH
rain 1hr
cm
rain 24hr
cm
rain mn
cm
humidity
%
barometer
mb
20260903162050 31 34 0.0 4.8 0.00 0.00 0.00 75 1013.2
20260903161545 31 34 1.6 4.8 0.00 0.00 0.00 75 1013.3
20260903161039 30 266 0.0 3.2 0.00 0.00 0.00 76 1013.3
20260903160533 30 144 0.0 1.6 0.00 0.00 0.00 77 1013.4
20260903160027 30 145 0.0 3.2 0.00 0.00 0.00 78 1013.4
20260903155745 30 32 0.0 3.2 0.00 0.00 0.00 78 1013.4
20260903155241 30 35 0.0 3.2 0.00 0.00 0.00 80 1013.3
20260903154516 30 35 0.0 3.2 0.00 0.00 0.00 79 1013.4
20260903154016 29 28 0.0 3.2 0.00 0.00 0.00 80 1013.4
20260903153517 29 221 0.0 1.6 0.00 0.00 0.00 80 1013.5
20260903153501 29 32 0.0 3.2 0.00 0.00 0.00 81 1013.5
20260903152517 29 32 0.0 3.2 0.00 0.00 0.00 81 1013.5
20260903152016 29 42 0.0 3.2 0.00 0.00 0.00 81 1013.5
20260903151736 29 36 0.0 3.2 0.00 0.00 0.00 82 1013.4
20260903151015 29 36 0.0 3.2 0.00 0.00 0.00 81 1013.4
20260903150515 29 41 0.0 1.6 0.00 0.00 0.00 83 1013.4
20260903150016 29 62 0.0 3.2 0.00 0.00 0.00 83 1013.3
20260903145743 29 46 0.0 3.2 0.00 0.00 0.00 82 1013.3
20260903145016 29 43 0.0 3.2 0.00 0.00 0.00 82 1013.3
20260903144518 29 94 0.0 1.6 0.00 0.00 0.00 82 1013.2
20260903144013 29 176 0.0 3.2 0.00 0.00 0.00 82 1013.1
20260903143514 28 210 0.0 3.2 0.00 0.00 0.00 81 1013.2
20260903143242 28 163 0.0 1.6 0.00 0.00 0.00 82 1013.1
20260903142738 28 190 0.0 3.2 0.00 0.00 0.00 81 1013.0
20260903142013 28 37 1.6 6.4 0.00 0.00 0.00 81 1013.0
20260903141512 28 11 1.6 6.4 0.00 0.00 0.00 81 1013.1
20260903141012 28 227 0.0 3.2 0.00 0.00 0.00 82 1013.0
20260903140735 28 63 0.0 1.6 0.00 0.00 0.00 82 1012.9
20260903140013 28 219 0.0 1.6 0.00 0.00 0.00 82 1012.7
20260903135511 27 207 0.0 1.6 0.00 0.00 0.00 82 1012.6
20260903135013 27 64 0.0 1.6 0.00 0.00 0.00 83 1012.6
20260903134513 27 105 0.0 1.6 0.00 0.00 0.00 84 1012.6
20260903134011 27 212 0.0 1.6 0.00 0.00 0.00 85 1012.6
20260903133512 26 212 0.0 6.4 0.00 0.00 0.00 87 1012.7
20260903133012 26 212 0.0 6.4 0.00 0.00 0.00 88 1012.7
20260903132511 26 151 0.0 1.6 0.00 0.00 0.00 90 1012.9
20260903132011 26 221 0.0 3.2 0.00 0.00 0.00 92 1013.0
20260903131512 25 222 0.0 3.2 0.00 0.00 0.00 94 1013.0
20260903131013 25 205 0.0 1.6 0.00 0.00 0.00 96 1013.0
20260903130741 25 173 0.0 0.0 0.00 0.00 0.00 97 1013.1
20260903130016 25 173 0.0 0.0 0.00 0.00 0.00 97 1013.1
20260903125514 25 173 0.0 0.0 0.00 0.00 0.00 97 1013.2
20260903125012 25 103 0.0 0.0 0.00 0.00 0.00 98 1013.3
20260903124730 25 103 0.0 0.0 0.00 0.00 0.00 98 1013.3
20260903124013 25 103 0.0 0.0 0.00 0.00 0.00 98 1013.4
20260903123510 25 103 0.0 0.0 0.00 0.00 0.00 98 1013.3
20260903123008 24 103 0.0 0.0 0.00 0.00 0.00 98 1013.3
20260903122505 24 103 0.0 0.0 0.00 0.00 0.00 98 1013.2
20260903122004 24 103 0.0 0.0 0.00 0.00 0.00 98 1013.3
20260903121501 24 103 0.0 0.0 0.00 0.00 0.00 98 1013.3
20260903121001 24 103 0.0 0.0 0.00 0.00 0.00 98 1013.3
20260903120458 23 103 0.0 0.0 0.00 0.00 0.00 98 1013.3
20260903115957 23 103 0.0 0.0 0.00 0.00 0.00 98 1013.3
20260903115456 23 103 0.0 0.0 0.00 0.00 0.00 98 1013.3
20260903114956 23 103 0.0 0.0 0.00 0.00 0.00 98 1013.3
20260903114454 23 103 0.0 0.0 0.00 0.00 0.00 98 1013.2
20260903113956 23 103 0.0 0.0 0.00 0.00 0.00 97 1013.1
20260903113455 23 103 0.0 0.0 0.00 0.00 0.00 97 1013.1
20260903113432 23 103 0.0 0.0 0.00 0.00 0.00 97 1013.0
20260903112710 23 103 0.0 0.0 0.00 0.00 0.00 97 1013.0
20260903111937 23 103 0.0 0.0 0.00 0.00 0.00 97 1013.0
20260903111430 23 103 0.0 0.0 0.00 0.00 0.00 97 1012.8
20260903110925 23 103 0.0 0.0 0.00 0.00 0.00 97 1012.8
20260903110643 23 103 0.0 0.0 0.00 0.00 0.00 97 1012.7
20260903105912 23 103 0.0 0.0 0.00 0.00 0.00 97 1012.7
20260903105406 23 103 0.0 0.0 0.00 0.00 0.00 97 1012.7
20260903104901 23 103 0.0 0.0 0.00 0.00 0.00 97 1012.6
20260903104355 23 103 0.0 0.0 0.00 0.00 0.00 97 1012.6
20260903104117 23 103 0.0 0.0 0.00 0.00 0.00 97 1012.6
20260903103343 23 103 0.0 0.0 0.00 0.00 0.00 97 1012.6
20260903102837 23 103 0.0 0.0 0.00 0.00 0.00 97 1012.7
20260903102330 23 103 0.0 0.0 0.00 0.00 0.00 97 1012.6
20260903101824 23 103 0.0 0.0 0.00 0.00 0.00 97 1012.6
20260903101319 23 103 0.0 0.0 0.00 0.00 0.00 97 1012.8
20260903100813 23 103 0.0 0.0 0.00 0.00 0.00 97 1012.7
20260903100534 23 103 0.0 0.0 0.00 0.00 0.00 97 1012.6
20260903095801 23 103 0.0 0.0 0.00 0.00 0.00 97 1012.5
20260903095518 23 103 0.0 0.0 0.00 0.00 0.00 97 1012.5
20260903094749 23 103 0.0 0.0 0.00 0.00 0.00 97 1012.6
20260903094243 23 103 0.0 0.0 0.00 0.00 0.00 97 1012.6
20260903093736 23 103 0.0 0.0 0.00 0.00 0.00 97 1012.6
20260903093231 23 103 0.0 0.0 0.00 0.00 0.00 97 1012.6
20260903092948 23 103 0.0 0.0 0.00 0.00 0.00 97 1012.6
20260903092219 23 103 0.0 0.0 0.00 0.00 0.00 97 1012.6
20260903091712 23 103 0.0 0.0 0.00 0.00 0.00 97 1012.5
20260903091206 23 103 0.0 0.0 0.00 0.00 0.00 97 1012.4
20260903090701 23 103 0.0 0.0 0.00 0.00 0.00 97 1012.3
20260903090155 23 103 0.0 0.0 0.00 0.00 0.00 97 1012.3
20260903085649 23 103 0.0 0.0 0.00 0.00 0.00 97 1012.2
20260903085408 23 103 0.0 0.0 0.00 0.00 0.00 97 1012.2
20260903084636 23 103 0.0 0.0 0.00 0.00 0.00 97 1012.1
20260903084130 23 103 0.0 0.0 0.00 0.00 0.00 97 1012.2
20260903083625 23 103 0.0 0.0 0.00 0.00 0.00 96 1012.1
20260903083118 23 103 0.0 0.0 0.00 0.00 0.00 96 1012.0
20260903082613 23 103 0.0 0.0 0.00 0.00 0.00 96 1012.0
20260903082106 23 103 0.0 0.0 0.00 0.00 0.00 96 1012.1
20260903081600 24 103 0.0 0.0 0.00 0.00 0.00 96 1012.1
20260903081314 24 103 0.0 0.0 0.00 0.00 0.00 96 1012.2
20260903080812 24 103 0.0 0.0 0.00 0.00 0.00 96 1012.3
20260903080305 24 103 0.0 0.0 0.00 0.00 0.00 96 1012.3
20260903075537 24 103 0.0 0.0 0.00 0.00 0.00 96 1012.4
20260903075031 24 103 0.0 0.0 0.00 0.00 0.00 96 1012.4
20260903074525 24 103 0.0 0.0 0.00 0.00 0.00 96 1012.4
20260903074019 24 103 0.0 0.0 0.00 0.00 0.00 96 1012.4
20260903073513 24 103 0.0 0.0 0.00 0.00 0.00 96 1012.4
20260903073004 24 103 0.0 0.0 0.00 0.00 0.00 96 1012.4
20260903072458 24 103 0.0 0.0 0.00 0.00 0.00 96 1012.4
20260903071952 24 103 0.0 0.0 0.00 0.00 0.00 96 1012.5
20260903071446 24 103 0.0 0.0 0.00 0.00 0.00 96 1012.5
20260903070940 24 103 0.0 0.0 0.00 0.00 0.00 96 1012.4
20260903070434 24 103 0.0 0.0 0.00 0.00 0.00 96 1012.5
20260903065928 24 103 0.0 0.0 0.00 0.00 0.00 96 1012.5
20260903065429 25 103 0.0 0.0 0.00 0.00 0.00 96 1012.6
20260903065411 25 103 0.0 0.0 0.00 0.00 0.00 96 1012.6
20260903064416 25 103 0.0 0.0 0.00 0.00 0.00 96 1012.6
20260903064131 25 103 0.0 0.0 0.00 0.00 0.00 96 1012.7
20260903063412 25 103 0.0 0.0 0.00 0.00 0.00 96 1012.7
20260903063128 25 103 0.0 0.0 0.00 0.00 0.00 96 1012.7
20260903062628 25 103 0.0 0.0 0.00 0.00 0.00 96 1012.7
20260903061905 25 103 0.0 0.0 0.00 0.00 0.00 95 1012.8
20260903061406 24 103 0.0 0.0 0.00 0.00 0.00 95 1012.7
20260903060905 25 103 0.0 0.0 0.00 0.00 0.00 95 1012.7
20260903060404 25 103 0.0 0.0 0.00 0.00 0.00 95 1012.7
20260903060129 25 103 0.0 0.0 0.00 0.00 0.00 95 1012.7
20260903055404 25 103 0.0 0.0 0.00 0.00 0.00 95 1012.8
20260903054902 25 103 0.0 0.0 0.00 0.00 0.00 95 1012.9
20260903054403 25 103 0.0 0.0 0.00 0.00 0.00 95 1012.9
20260903053900 25 103 0.0 0.0 0.00 0.00 0.00 95 1012.9
20260903053359 25 103 0.0 0.0 0.00 0.00 0.00 95 1013.0
20260903052858 25 103 0.0 0.0 0.00 0.00 0.00 95 1013.1
20260903052358 25 103 0.0 0.0 0.00 0.00 0.00 95 1013.2
20260903052123 25 103 0.0 0.0 0.00 0.00 0.00 95 1013.2
20260903051356 25 103 0.0 0.0 0.00 0.00 0.00 95 1013.3
20260903051125 25 103 0.0 0.0 0.00 0.00 0.00 95 1013.4
20260903050353 25 103 0.0 1.6 0.00 0.00 0.00 95 1013.4
20260903045853 25 103 0.0 1.6 0.00 0.00 0.00 95 1013.5
20260903045354 25 103 0.0 0.0 0.00 0.00 0.00 95 1013.5
20260903044853 25 103 0.0 0.0 0.00 0.00 0.00 95 1013.4
20260903044353 25 103 0.0 0.0 0.00 0.00 0.00 95 1013.4
20260903043854 25 103 0.0 1.6 0.00 0.00 0.00 95 1013.4
20260903043353 25 103 0.0 1.6 0.00 0.00 0.00 95 1013.2
20260903042853 25 103 0.0 0.0 0.00 0.00 0.00 95 1013.1
20260903042354 25 103 0.0 0.0 0.00 0.00 0.00 95 1013.2
20260903041854 25 103 0.0 0.0 0.00 0.00 0.00 95 1013.1
20260903041353 25 103 0.0 0.0 0.00 0.00 0.00 95 1012.9
20260903041115 25 103 0.0 0.0 0.00 0.00 0.00 95 1012.8
20260903040353 25 103 0.0 0.0 0.00 0.00 0.00 95 1012.8
20260903035854 25 103 0.0 0.0 0.00 0.00 0.00 94 1012.8
20260903035614 25 103 0.0 0.0 0.00 0.00 0.00 94 1012.7
20260903034851 25 103 0.0 0.0 0.00 0.00 0.00 94 1012.7
20260903034348 25 103 0.0 0.0 0.00 0.00 0.00 94 1012.7
20260903033847 25 103 0.0 0.0 0.00 0.00 0.00 94 1012.7
20260903033343 25 103 0.0 0.0 0.00 0.00 0.00 94 1012.5
20260903032844 25 103 0.0 0.0 0.00 0.00 0.00 94 1012.5
20260903032345 25 103 0.0 0.0 0.00 0.00 0.00 94 1012.5
20260903031842 25 103 0.0 0.0 0.00 0.00 0.00 94 1012.5
20260903031340 25 103 0.0 0.0 0.00 0.00 0.00 94 1012.5
20260903030834 25 103 0.0 0.0 0.00 0.00 0.00 94 1012.6
20260903030328 25 103 0.0 0.0 0.00 0.00 0.00 93 1012.5
20260903025822 25 103 0.0 0.0 0.00 0.00 0.00 93 1012.6
20260903025316 25 103 0.0 0.0 0.00 0.00 0.00 93 1012.6
20260903024810 26 103 0.0 0.0 0.00 0.00 0.00 93 1012.6
20260903024304 26 103 0.0 0.0 0.00 0.00 0.00 93 1012.6
20260903023758 26 103 0.0 0.0 0.00 0.00 0.00 92 1012.7
20260903023252 26 103 0.0 0.0 0.00 0.00 0.00 92 1012.8
20260903022746 26 103 0.0 0.0 0.00 0.00 0.00 92 1012.8
20260903022241 26 103 0.0 0.0 0.00 0.00 0.00 92 1012.9
20260903021735 26 103 0.0 0.0 0.00 0.00 0.00 92 1012.9
20260903021448 26 103 0.0 0.0 0.00 0.00 0.00 92 1013.0
20260903020722 26 103 0.0 0.0 0.00 0.00 0.00 92 1013.1
20260903020217 26 103 0.0 0.0 0.00 0.00 0.00 92 1013.1
20260903015717 26 103 0.0 0.0 0.00 0.00 0.00 91 1013.3
20260903015217 26 103 0.0 0.0 0.00 0.00 0.00 92 1013.4
20260903014717 26 103 0.0 0.0 0.00 0.00 0.00 91 1013.3
20260903014217 26 103 0.0 0.0 0.00 0.00 0.00 91 1013.2
20260903013717 26 103 0.0 0.0 0.00 0.00 0.00 90 1013.2
20260903013219 26 103 0.0 0.0 0.00 0.00 0.00 91 1013.2
20260903012715 26 103 0.0 0.0 0.00 0.00 0.00 90 1013.2
20260903012215 26 103 0.0 0.0 0.00 0.00 0.00 90 1013.2
20260903011715 26 103 0.0 0.0 0.00 0.00 0.00 90 1013.3
20260903011214 27 103 0.0 0.0 0.00 0.00 0.00 90 1013.3
20260903011200 27 103 0.0 0.0 0.00 0.00 0.00 89 1013.3
20260903010215 27 103 0.0 0.0 0.00 0.00 0.00 89 1013.3
20260903005716 27 103 0.0 0.0 0.00 0.00 0.00 89 1013.3
20260903005216 27 103 0.0 0.0 0.00 0.00 0.00 89 1013.2
20260903004714 27 103 0.0 0.0 0.00 0.00 0.00 89 1013.2
20260903004212 27 103 0.0 0.0 0.00 0.00 0.00 88 1013.1
20260903003712 27 103 0.0 0.0 0.00 0.00 0.00 88 1012.9
20260903003206 27 103 0.0 0.0 0.00 0.00 0.00 87 1012.9
20260903002704 27 103 0.0 0.0 0.00 0.00 0.00 87 1012.8
20260903002206 27 103 0.0 0.0 0.00 0.00 0.00 86 1012.7
20260903001703 27 103 0.0 1.6 0.00 0.00 0.00 86 1012.8
20260903001644 28 103 0.0 1.6 0.00 0.00 0.00 86 1012.9
20260903000704 28 103 0.0 0.0 0.00 0.00 0.00 85 1012.8
20260903000204 28 103 0.0 1.6 0.00 0.00 0.00 85 1012.9
20260902235704 28 103 0.0 1.6 0.00 0.00 0.00 85 1012.6
20260902235204 28 103 0.0 0.0 0.00 0.00 0.00 84 1012.7
20260902234706 28 103 0.0 0.0 0.00 0.00 0.00 84 1012.7
20260902234201 28 103 0.0 1.6 0.00 0.00 0.00 84 1012.8
20260902233702 28 103 0.0 1.6 0.00 0.00 0.00 84 1012.5
20260902233202 28 90 0.0 1.6 0.00 0.00 0.00 84 1012.2
20260902232658 28 38 0.0 1.6 0.00 0.00 0.00 84 1012.6
20260902232200 28 38 0.0 0.0 0.00 0.00 0.00 84 1013.2
20260902231659 28 38 0.0 0.0 0.00 0.00 0.00 84 1013.3
20260902231159 28 38 0.0 0.0 0.00 0.00 0.00 84 1013.3
20260902230659 28 38 0.0 1.6 0.00 0.00 0.00 84 1013.2
20260902230159 28 38 0.0 1.6 0.00 0.00 0.00 84 1013.1
20260902225656 28 38 0.0 1.6 0.00 0.00 0.00 83 1013.1
20260902225156 28 38 0.0 1.6 0.00 0.00 0.00 83 1013.0
20260902224656 28 38 0.0 1.6 0.00 0.00 0.00 83 1012.9
20260902224154 28 38 0.0 1.6 0.00 0.00 0.00 82 1013.1
20260902223656 28 38 0.0 1.6 0.00 0.00 0.00 81 1013.2
20260902223156 28 38 0.0 1.6 0.00 0.00 0.00 81 1013.2
20260902222656 28 38 0.0 0.0 0.00 0.00 0.00 80 1013.4
20260902222156 29 36 0.0 3.2 0.00 0.00 0.00 80 1013.7
20260902221654 29 36 0.0 3.2 0.00 0.00 0.00 79 1013.9
20260902221154 30 36 0.0 0.0 0.00 0.00 0.00 77 1013.2
20260902220652 30 36 0.0 0.0 0.00 0.00 0.00 76 1013.2
20260902220150 30 36 0.0 0.0 0.00 0.00 0.00 74 1013.3
20260902215644 30 36 0.0 0.0 0.00 0.00 0.00 73 1013.2
20260902215138 31 36 0.0 0.0 0.00 0.00 0.00 72 1013.2
20260902214631 31 36 0.0 1.6 0.00 0.00 0.00 70 1013.4
20260902214125 32 36 0.0 1.6 0.00 0.00 0.00 69 1013.3
20260902213620 32 344 0.0 1.6 0.00 0.00 0.00 68 1013.2
20260902213113 32 344 0.0 1.6 0.00 0.00 0.00 68 1013.1
20260902212607 32 345 0.0 1.6 0.00 0.00 0.00 67 1013.2
20260902212101 32 111 0.0 1.6 0.00 0.00 0.00 67 1013.4
20260902211555 32 101 0.0 3.2 0.00 0.00 0.00 68 1013.5
20260902211049 32 39 0.0 3.2 0.00 0.00 0.00 66 1013.4
20260902210543 32 149 0.0 1.6 0.00 0.00 0.00 66 1013.0
20260902210037 32 60 0.0 1.6 0.00 0.00 0.00 66 1013.1
20260902205530 32 39 0.0 1.6 0.00 0.00 0.00 66 1013.0
20260902205028 32 112 0.0 4.8 0.00 0.00 0.00 65 1013.4
20260902204520 33 62 0.0 4.8 0.00 0.00 0.00 65 1013.6
20260902204239 34 40 0.0 1.6 0.00 0.00 0.00 64 1013.6
20260902203507 35 136 0.0 1.6 0.00 0.00 0.00 63 1013.4
20260902203002 35 47 0.0 1.6 0.00 0.00 0.00 62 1013.2
20260902202455 35 41 0.0 1.6 0.00 0.00 0.00 63 1013.0
20260902201949 35 39 0.0 4.8 0.00 0.00 0.00 62 1013.1
20260902201443 35 32 1.6 6.4 0.00 0.00 0.00 61 1013.1
20260902200936 35 35 1.6 6.4 0.00 0.00 0.00 60 1013.1
20260902200652 35 37 1.6 6.4 0.00 0.00 0.00 60 1013.2
20260902195923 35 4 1.6 3.2 0.00 0.00 0.00 58 1013.2
20260902195417 35 221 0.0 3.2 0.00 0.00 0.00 57 1013.2
20260902194910 35 32 0.0 3.2 0.00 0.00 0.00 60 1013.0
20260902194405 35 27 0.0 3.2 0.00 0.00 0.00 60 1012.9
20260902193859 35 39 0.0 3.2 0.00 0.00 0.00 59 1012.9
20260902193352 35 258 0.0 3.2 0.00 0.00 0.00 59 1012.8
20260902192847 35 37 0.0 3.2 0.00 0.00 0.00 59 1012.8
20260902192340 36 36 0.0 3.2 0.00 0.00 0.00 58 1012.8
20260902191835 36 39 0.0 3.2 0.00 0.00 0.00 56 1012.9
20260902191329 36 21 0.0 3.2 0.00 0.00 0.00 58 1012.9
20260902190823 36 245 0.0 3.2 0.00 0.00 0.00 57 1012.9
20260902190317 36 32 1.6 3.2 0.00 0.00 0.00 56 1013.0
20260902185811 36 33 1.6 3.2 0.00 0.00 0.00 57 1013.0
20260902185307 36 17 0.0 3.2 0.00 0.00 0.00 58 1013.0
20260902184759 36 216 0.0 1.6 0.00 0.00 0.00 58 1013.1
20260902184522 36 57 0.0 3.2 0.00 0.00 0.00 59 1013.3
20260902183747 36 46 0.0 3.2 0.00 0.00 0.00 58 1013.3
20260902183241 36 54 0.0 3.2 0.00 0.00 0.00 57 1013.3
20260902182735 36 72 0.0 3.2 0.00 0.00 0.00 55 1013.3
20260902182229 36 43 0.0 3.2 0.00 0.00 0.00 56 1013.4
20260902181723 37 31 0.0 3.2 0.00 0.00 0.00 55 1013.4
20260902181216 37 241 0.0 1.6 0.00 0.00 0.00 55 1013.5
20260902180711 36 161 0.0 1.6 0.00 0.00 0.00 56 1013.5
20260902180205 36 65 0.0 3.2 0.00 0.00 0.00 56 1013.5
20260902175659 36 184 0.0 3.2 0.00 0.00 0.00 55 1013.6
20260902175153 36 40 0.0 1.6 0.00 0.00 0.00 57 1013.6
20260902174647 36 44 0.0 1.6 0.00 0.00 0.00 60 1013.6
20260902174141 35 150 1.6 4.8 0.00 0.00 0.00 58 1013.6
20260902173634 35 49 1.6 4.8 0.00 0.00 0.00 58 1013.6
20260902173129 35 35 0.0 3.2 0.00 0.00 0.00 61 1013.5
20260902172850 34 51 1.6 3.2 0.00 0.00 0.00 60 1013.5
20260902172117 35 37 1.6 4.8 0.00 0.00 0.00 59 1013.6
20260902171611 35 30 1.6 4.8 0.00 0.00 0.00 58 1013.6
20260902171104 35 37 1.6 4.8 0.00 0.00 0.00 60 1013.5
20260902170825 35 30 1.6 6.4 0.00 0.00 0.00 61 1013.6
20260902170053 35 32 1.6 6.4 0.00 0.00 0.00 60 1013.6
20260902165547 34 58 1.6 4.8 0.00 0.00 0.00 62 1013.6
20260902165301 34 30 0.0 4.8 0.00 0.00 0.00 62 1013.6
20260902164535 34 49 0.0 3.2 0.00 0.00 0.00 61 1013.7
20260902164029 34 154 0.0 3.2 0.00 0.00 0.00 62 1013.7
20260902163522 33 61 0.0 3.2 0.00 0.00 0.00 61 1013.7
20260902163017 33 187 0.0 3.2 0.00 0.00 0.00 61 1013.7
20260902162512 33 204 0.0 3.2 0.00 0.00 0.00 63 1013.7